Weather History for Provincetown, MA

Change the Weather History Date:

Friday, February 22, 2013

  Actual Average Record
Temperature  
Mean Temperature 35 °F -  
Max Temperature 37 °F 36 °F 52 °F (1954)
Min Temperature 33 °F 26 °F 15 °F (1956)
Degree Days  
Heating Degree Days 30    
Moisture  
Dew Point 26 °F    
Average Humidity 68    
Maximum Humidity 81    
Minimum Humidity 60    
Precipitation  
Precipitation 0.00 in - - ()
Sea Level Pressure  
Sea Level Pressure 30.31 in    
Wind  
Wind Speed 15 mph (NNE)    
Max Wind Speed 23 mph    
Max Gust Speed 32 mph    
Visibility 10 miles    
Events      
Averages and records for this station are not official NWS values.
T = Trace of Precipitation, MM = Missing Value Source: NWS Daily Summary

Daily Weather History Graph

Daily Weather History Graph

Search for Another Location

Airport:

Trip Planner

Search our weather history database for the weather conditions in past years. The results will help you decide how hot, cold, wet, or windy it might be!

Date:

Astronomy

Feb. 22, 2013 Rise Set
Actual Time 6:26 AM EST 5:22 PM EST
Civil Twilight 5:58 AM EST 5:51 PM EST
Nautical Twilight 5:25 AM EST 6:23 PM EST
Astronomical Twilight 4:53 AM EST 6:55 PM EST
Moon 2:29 PM EST (2/22) 4:11 AM EST (2/22)
Length of Visible Light 11h 52m
Length of Day
10h 56m
Waxing Gibbous, 90% of the Moon is Illuminated
Feb 22
Waxing Gibbous
Feb 25
Full
Mar 4
Last Quarter
Mar 11
New
Mar 19
First Quarter

Hourly Weather History & Observations

Time (EST) Temp. Windchill Dew Point Humidity Pressure Visibility Wind Dir Wind Speed Gust Speed Precip Events Conditions
12:15 AM 33.8 °F 22.2 °F 28.4 °F 81% 30.11 in 10.0 mi NNW 20.7 mph 31.1 mph N/A   Overcast
12:35 AM 33.8 °F 21.9 °F 28.4 °F 81% 30.13 in 10.0 mi NNW 21.9 mph 31.1 mph N/A   Overcast
12:55 AM 35.6 °F 24.2 °F 28.4 °F 75% 30.15 in 10.0 mi NNW 21.9 mph 31.1 mph N/A   Overcast
1:15 AM 35.6 °F 24.2 °F 28.4 °F 75% 30.16 in 10.0 mi NNW 21.9 mph 29.9 mph N/A   Overcast
1:55 AM 33.8 °F 21.9 °F 28.4 °F 81% 30.18 in 10.0 mi NNW 21.9 mph 27.6 mph N/A   Overcast
2:15 AM 33.8 °F 21.6 °F 26.6 °F 75% 30.18 in 10.0 mi NNW 23.0 mph 32.2 mph N/A   Overcast
2:35 AM 33.8 °F 22.5 °F 26.6 °F 75% 30.18 in 10.0 mi NNW 19.6 mph 32.2 mph N/A   Overcast
3:15 AM 35.6 °F 24.5 °F 26.6 °F 70% 30.19 in 10.0 mi North 20.7 mph 29.9 mph N/A   Overcast
3:55 AM 35.6 °F 24.8 °F 28.4 °F 75% 30.21 in 10.0 mi North 19.6 mph 27.6 mph N/A   Overcast
4:15 AM 35.6 °F 24.8 °F 28.4 °F 75% 30.22 in 10.0 mi North 19.6 mph 27.6 mph N/A   Overcast
4:35 AM 35.6 °F 24.2 °F 26.6 °F 70% 30.23 in 10.0 mi North 21.9 mph 27.6 mph N/A   Overcast
4:55 AM 35.6 °F 24.8 °F 26.6 °F 70% 30.23 in 10.0 mi North 19.6 mph 26.5 mph N/A   Overcast
5:35 AM 35.6 °F 25.5 °F 26.6 °F 70% 30.25 in 10.0 mi NNE 17.3 mph 28.8 mph N/A   Overcast
5:55 AM 35.6 °F 25.9 °F 26.6 °F 70% 30.26 in 10.0 mi NNE 16.1 mph 26.5 mph N/A   Overcast
6:15 AM 35.6 °F 25.5 °F 24.8 °F 65% 30.28 in 10.0 mi NNE 17.3 mph 25.3 mph N/A   Overcast
6:35 AM 35.6 °F 26.6 °F 24.8 °F 65% 30.29 in 10.0 mi NNE 13.8 mph 23.0 mph N/A   Overcast
6:55 AM 35.6 °F 26.2 °F 26.6 °F 70% 30.30 in 10.0 mi NNE 15.0 mph 21.9 mph N/A   Overcast
7:15 AM 35.6 °F 26.2 °F 24.8 °F 65% 30.32 in 10.0 mi North 15.0 mph 21.9 mph N/A   Overcast
7:55 AM 35.6 °F 25.9 °F 24.8 °F 65% 30.34 in 10.0 mi NNE 16.1 mph 21.9 mph N/A   Overcast
8:15 AM 35.6 °F 26.6 °F 24.8 °F 65% 30.34 in 10.0 mi NNE 13.8 mph 20.7 mph N/A   Overcast
8:35 AM 35.6 °F 25.2 °F 24.8 °F 65% 30.35 in 10.0 mi NNE 18.4 mph 21.9 mph N/A   Overcast
8:55 AM 35.6 °F 27.1 °F 24.8 °F 65% 30.35 in 10.0 mi North 12.7 mph 20.7 mph N/A   Overcast
9:15 AM 35.6 °F 26.2 °F 26.6 °F 70% 30.35 in 10.0 mi NNE 15.0 mph 21.9 mph N/A   Overcast
9:35 AM 35.6 °F 26.2 °F 26.6 °F 70% 30.34 in 10.0 mi NNE 15.0 mph 19.6 mph N/A   Overcast
10:15 AM 35.6 °F 26.2 °F 24.8 °F 65% 30.34 in 10.0 mi NNE 15.0 mph 20.7 mph N/A   Overcast
10:35 AM 35.6 °F 25.9 °F 24.8 °F 65% 30.35 in 10.0 mi NNE 16.1 mph 20.7 mph N/A   Overcast
10:55 AM 35.6 °F 25.2 °F 24.8 °F 65% 30.35 in 10.0 mi NNE 18.4 mph - N/A   Overcast
11:15 AM 37.4 °F 28.5 °F 24.8 °F 60% 30.35 in 10.0 mi NNE 15.0 mph 19.6 mph N/A   Overcast
11:35 AM 35.6 °F 26.2 °F 23.0 °F 60% 30.35 in 10.0 mi NNE 15.0 mph - N/A   Overcast
11:55 AM 35.6 °F 26.2 °F 24.8 °F 65% 30.34 in 10.0 mi NNE 15.0 mph 19.6 mph N/A   Overcast
12:15 PM 35.6 °F 26.2 °F 23.0 °F 60% 30.34 in 10.0 mi NNE 15.0 mph 20.7 mph N/A   Overcast
12:35 PM 35.6 °F 27.5 °F 26.6 °F 70% 30.34 in 10.0 mi NNE 11.5 mph - N/A   Overcast
12:55 PM 35.6 °F 27.1 °F 24.8 °F 65% 30.35 in 10.0 mi NNE 12.7 mph - N/A   Overcast
1:15 PM 35.6 °F 27.1 °F 24.8 °F 65% 30.34 in 10.0 mi NNE 12.7 mph - N/A   Overcast
1:35 PM 35.6 °F 27.5 °F 24.8 °F 65% 30.34 in 10.0 mi NNE 11.5 mph - N/A   Overcast
2:15 PM 35.6 °F 27.5 °F 24.8 °F 65% 30.35 in 10.0 mi NNE 11.5 mph - N/A   Overcast
2:35 PM 35.6 °F 28.0 °F 24.8 °F 65% 30.35 in 10.0 mi NE 10.4 mph - N/A   Overcast
2:55 PM 35.6 °F 25.9 °F 24.8 °F 65% 30.34 in 10.0 mi NNE 16.1 mph - N/A   Overcast
3:15 PM 35.6 °F 27.1 °F 24.8 °F 65% 30.35 in 10.0 mi NE 12.7 mph - N/A   Overcast
3:35 PM 35.6 °F 26.2 °F 24.8 °F 65% 30.35 in 10.0 mi NNE 15.0 mph 19.6 mph N/A   Overcast
3:55 PM 35.6 °F 29.2 °F 24.8 °F 65% 30.36 in 10.0 mi NE 8.1 mph - N/A   Overcast
4:15 PM 35.6 °F 27.5 °F 23.0 °F 60% 30.36 in 10.0 mi NNE 11.5 mph - N/A   Overcast
4:35 PM 35.6 °F 28.0 °F 24.8 °F 65% 30.36 in 10.0 mi NE 10.4 mph - N/A   Overcast
4:55 PM 35.6 °F 29.9 °F 24.8 °F 65% 30.35 in 10.0 mi NE 6.9 mph - N/A   Overcast
5:15 PM 35.6 °F 28.6 °F 24.8 °F 65% 30.35 in 10.0 mi NE 9.2 mph - N/A   Overcast
5:35 PM 35.6 °F 27.5 °F 24.8 °F 65% 30.34 in 10.0 mi ENE 11.5 mph - N/A   Overcast
5:55 PM 35.6 °F 29.9 °F 24.8 °F 65% 30.35 in 10.0 mi ENE 6.9 mph - N/A   Overcast
6:15 PM 35.6 °F 29.9 °F 24.8 °F 65% 30.35 in 10.0 mi ENE 6.9 mph - N/A   Overcast
6:35 PM 35.6 °F 28.6 °F 24.8 °F 65% 30.35 in 10.0 mi ENE 9.2 mph - N/A   Overcast
6:55 PM 35.6 °F 31.7 °F 24.8 °F 65% 30.36 in 10.0 mi ENE 4.6 mph - N/A   Overcast
7:15 PM 35.6 °F 30.7 °F 24.8 °F 65% 30.36 in 10.0 mi East 5.8 mph - N/A   Overcast
7:35 PM 35.6 °F 32.8 °F 24.8 °F 65% 30.36 in 10.0 mi East 3.5 mph - N/A   Overcast
7:55 PM 33.8 °F 30.8 °F 24.8 °F 70% 30.36 in 10.0 mi ESE 3.5 mph - N/A   Overcast
8:15 PM 33.8 °F 29.6 °F 24.8 °F 70% 30.35 in 10.0 mi East 4.6 mph - N/A   Overcast
8:35 PM 35.6 °F 30.7 °F 24.8 °F 65% 30.36 in 10.0 mi ENE 5.8 mph - N/A   Overcast
8:55 PM 35.6 °F 31.7 °F 24.8 °F 65% 30.35 in 10.0 mi ENE 4.6 mph - N/A   Overcast
9:15 PM 35.6 °F - 24.8 °F 65% 30.37 in 10.0 mi Calm Calm - N/A   Overcast
9:35 PM 35.6 °F 32.8 °F 24.8 °F 65% 30.36 in 10.0 mi NE 3.5 mph - N/A   Overcast
9:55 PM 33.8 °F 30.8 °F 26.6 °F 75% 30.36 in 10.0 mi SE 3.5 mph - N/A   Overcast
10:15 PM 33.8 °F - 26.6 °F 75% 30.36 in 10.0 mi Calm Calm - N/A   Overcast
10:35 PM 33.8 °F - 26.6 °F 75% 30.35 in 10.0 mi Calm Calm - N/A   Overcast
10:55 PM 33.8 °F - 26.6 °F 75% 30.35 in 10.0 mi Calm Calm - N/A   Overcast
11:15 PM 33.8 °F - 26.6 °F 75% 30.35 in 10.0 mi Calm Calm - N/A   Overcast
11:35 PM 33.8 °F - 24.8 °F 70% 30.35 in 10.0 mi Calm Calm - N/A   Overcast
11:55 PM 33.8 °F - 28.4 °F 81% 30.35 in 10.0 mi Calm Calm - N/A   Overcast